• In Lithuania
  • List of Countries
  • For 7 days
  • Water Temperature
  • Satellite Maps
  • Weather Map
  • Weather Widgets
  • user-avatar
    Login

    Hourly Weather Makeni

    Today, 24 November, Friday

    Time Temperature Precipitation Wind Pressure Humidity
    00:00 +23°C° 0 mm 0 mps 752 mmHg 98%
    01:00 +23°C° 0 mm 0 mps 751 mmHg 98%
    02:00 +23°C° 0 mm 0 mps 751 mmHg 98%
    03:00 +23°C° 0 mm 0 mps 751 mmHg 98%
    04:00 +23°C° 0 mm 0 mps 751 mmHg 98%
    05:00 +23°C° 0 mm 0 mps 751 mmHg 97%
    06:00 +24°C° 0.1 mm 0 mps 751 mmHg 95%
    07:00 +25°C° 0.1 mm 0 mps 751 mmHg 92%
    08:00 +26°C° 0.1 mm 0 mps 752 mmHg 90%
    09:00 +27°C° 0 mm 0 mps 752 mmHg 80%
    10:00 +31°C° 0 mm 1 mps 751 mmHg 71%
    11:00 +33°C° 0 mm 1 mps 751 mmHg 62%
    12:00 +33°C° 0 mm 1 mps 751 mmHg 61%
    13:00 +33°C° 0 mm 1 mps 750 mmHg 60%
    14:00 +33°C° 0 mm 1 mps 749 mmHg 58%
    15:00 +32°C° 0 mm 1 mps 749 mmHg 64%
    16:00 +31°C° 0 mm 1 mps 749 mmHg 71%
    17:00 +30°C° 0 mm 1 mps 749 mmHg 77%
    18:00 +29°C° 0 mm 1 mps 750 mmHg 80%
    19:00 +28°C° 0 mm 1 mps 751 mmHg 84%
    20:00 +27°C° 0 mm 1 mps 751 mmHg 88%
    21:00 +26°C° 0 mm 1 mps 751 mmHg 90%
    22:00 +26°C° 0 mm 1 mps 752 mmHg 93%
    23:00 +24°C° 0 mm 0 mps 752 mmHg 96%

    Tomorrow, 25 November, Saturday

    Time Temperature Precipitation Wind Pressure Humidity
    00:00 +23°C° 0 mm 0 mps 751 mmHg 96%
    01:00 +23°C° 0 mm 0 mps 751 mmHg 97%
    02:00 +23°C° 0 mm 0 mps 751 mmHg 97%
    03:00 +23°C° 0.1 mm 0 mps 751 mmHg 97%
    04:00 +24°C° 0.1 mm 0 mps 750 mmHg 97%
    05:00 +24°C° 0.1 mm 0 mps 750 mmHg 96%
    06:00 +25°C° 0 mm 0 mps 751 mmHg 92%
    07:00 +26°C° 0 mm 0 mps 751 mmHg 87%
    08:00 +27°C° 0 mm 0 mps 752 mmHg 83%
    09:00 +28°C° 0 mm 0 mps 752 mmHg 76%
    10:00 +32°C° 0 mm 1 mps 751 mmHg 68%
    11:00 +33°C° 0 mm 1 mps 751 mmHg 61%
    12:00 +32°C° 0.1 mm 0 mps 751 mmHg 59%
    13:00 +32°C° 0.1 mm 0 mps 750 mmHg 58%
    14:00 +33°C° 0.1 mm 0 mps 749 mmHg 56%
    15:00 +31°C° 0.1 mm 0 mps 749 mmHg 62%
    16:00 +32°C° 0.1 mm 1 mps 749 mmHg 68%
    17:00 +30°C° 0.1 mm 1 mps 749 mmHg 75%
    18:00 +29°C° 0.3 mm 1 mps 750 mmHg 80%
    19:00 +28°C° 0.3 mm 1 mps 751 mmHg 86%
    20:00 +26°C° 0.3 mm 1 mps 751 mmHg 92%
    21:00 +26°C° 0.2 mm 1 mps 751 mmHg 93%
    22:00 +26°C° 0.2 mm 1 mps 752 mmHg 95%
    23:00 +24°C° 0.2 mm 0 mps 752 mmHg 96%

    Day after tomorrow, 26 November, Sunday

    Time Temperature Precipitation Wind Pressure Humidity
    00:00 +23°C° 0 mm 0 mps 751 mmHg 96%
    01:00 +23°C° 0 mm 0 mps 751 mmHg 97%
    02:00 +23°C° 0 mm 0 mps 750 mmHg 98%
    03:00 +23°C° 0 mm 0 mps 750 mmHg 98%
    04:00 +23°C° 0 mm 0 mps 750 mmHg 98%
    05:00 +23°C° 0 mm 0 mps 751 mmHg 98%
    06:00 +24°C° 0 mm 0 mps 751 mmHg 94%
    07:00 +25°C° 0 mm 0 mps 752 mmHg 90%
    08:00 +26°C° 0 mm 0 mps 752 mmHg 86%
    09:00 +28°C° 0 mm 0 mps 752 mmHg 79%
    10:00 +29°C° 0 mm 0 mps 752 mmHg 71%
    11:00 +31°C° 0 mm 0 mps 752 mmHg 64%
    12:00 +33°C° 0 mm 1 mps 751 mmHg 63%
    13:00 +33°C° 0 mm 1 mps 750 mmHg 62%
    14:00 +33°C° 0 mm 1 mps 750 mmHg 60%
    15:00 +32°C° 0.3 mm 1 mps 749 mmHg 68%
    16:00 +31°C° 0.3 mm 1 mps 749 mmHg 75%
    17:00 +29°C° 0.3 mm 1 mps 749 mmHg 83%
    18:00 +28°C° 0.1 mm 1 mps 750 mmHg 86%
    19:00 +28°C° 0.1 mm 1 mps 751 mmHg 89%
    20:00 +27°C° 0.1 mm 1 mps 751 mmHg 92%
    21:00 +26°C° 0 mm 1 mps 751 mmHg 93%
    22:00 +26°C° 0 mm 1 mps 752 mmHg 95%
    23:00 +24°C° 0 mm 0 mps 752 mmHg 96%

    27 November, Monday

    Time Temperature Precipitation Wind Pressure Humidity
    00:00 +24°C° 0 mm 0 mps 751 mmHg 97%
    01:00 +23°C° 0 mm 0 mps 751 mmHg 97%
    02:00 +23°C° 0 mm 0 mps 750 mmHg 98%
    03:00 +23°C° 0 mm 0 mps 751 mmHg 98%
    04:00 +23°C° 0 mm 0 mps 751 mmHg 98%
    05:00 +23°C° 0 mm 0 mps 751 mmHg 98%
    06:00 +24°C° 0 mm 0 mps 751 mmHg 94%
    07:00 +25°C° 0 mm 0 mps 752 mmHg 90%
    08:00 +26°C° 0 mm 0 mps 752 mmHg 86%
    09:00 +28°C° 0.1 mm 0 mps 752 mmHg 77%
    10:00 +32°C° 0.1 mm 1 mps 752 mmHg 69%
    11:00 +33°C° 0.1 mm 1 mps 752 mmHg 61%
    12:00 +33°C° 0 mm 1 mps 751 mmHg 60%
    13:00 +33°C° 0 mm 1 mps 750 mmHg 60%
    14:00 +33°C° 0 mm 1 mps 749 mmHg 59%
    15:00 +32°C° 0.5 mm 1 mps 749 mmHg 65%
    16:00 +31°C° 0.5 mm 1 mps 750 mmHg 71%
    17:00 +30°C° 0.5 mm 1 mps 750 mmHg 78%
    18:00 +29°C° 0 mm 1 mps 750 mmHg 81%
    19:00 +28°C° 0 mm 1 mps 751 mmHg 85%
    20:00 +27°C° 0 mm 1 mps 751 mmHg 89%
    21:00 +26°C° 0 mm 1 mps 751 mmHg 91%
    22:00 +26°C° 0 mm 1 mps 751 mmHg 93%
    23:00 +24°C° 0 mm 0 mps 751 mmHg 95%

    28 November, Tuesday

    Time Temperature Precipitation Wind Pressure Humidity
    00:00 +24°C° 0 mm 0 mps 751 mmHg 96%
    01:00 +24°C° 0 mm 0 mps 751 mmHg 96%
    02:00 +24°C° 0 mm 0 mps 750 mmHg 96%
    03:00 +24°C° 0.2 mm 0 mps 750 mmHg 96%
    04:00 +24°C° 0.2 mm 0 mps 751 mmHg 95%
    05:00 +24°C° 0.2 mm 0 mps 751 mmHg 95%
    06:00 +25°C° 0.1 mm 0 mps 751 mmHg 91%
    07:00 +26°C° 0.1 mm 0 mps 752 mmHg 87%
    08:00 +27°C° 0.1 mm 0 mps 752 mmHg 84%
    09:00 +29°C° 0 mm 0 mps 752 mmHg 75%
    10:00 +33°C° 0 mm 1 mps 752 mmHg 66%
    11:00 +34°C° 0 mm 1 mps 751 mmHg 57%
    12:00 +34°C° 0 mm 1 mps 750 mmHg 56%
    13:00 +34°C° 0 mm 1 mps 750 mmHg 56%
    14:00 +34°C° 0 mm 1 mps 749 mmHg 55%
    15:00 +33°C° 0.7 mm 1 mps 749 mmHg 65%
    16:00 +31°C° 0.7 mm 1 mps 749 mmHg 75%
    17:00 +29°C° 0.7 mm 1 mps 749 mmHg 84%
    18:00 +28°C° 0.2 mm 1 mps 750 mmHg 87%
    19:00 +27°C° 0.2 mm 1 mps 751 mmHg 91%
    20:00 +26°C° 0.2 mm 1 mps 751 mmHg 94%
    21:00 +26°C° 0 mm 1 mps 751 mmHg 95%
    22:00 +26°C° 0 mm 1 mps 751 mmHg 96%
    23:00 +23°C° 0 mm 0 mps 751 mmHg 97%

    29 November, Wednesday

    Time Temperature Precipitation Wind Pressure Humidity
    00:00 +23°C° 0 mm 0 mps 751 mmHg 97%
    01:00 +23°C° 0 mm 0 mps 750 mmHg 98%
    02:00 +23°C° 0 mm 0 mps 750 mmHg 98%
    03:00 +23°C° 0 mm 0 mps 750 mmHg 98%
    04:00 +23°C° 0 mm 0 mps 750 mmHg 98%
    05:00 +23°C° 0 mm 0 mps 750 mmHg 98%
    06:00 +24°C° 0 mm 0 mps 751 mmHg 94%
    07:00 +25°C° 0 mm 0 mps 751 mmHg 91%
    08:00 +26°C° 0 mm 0 mps 752 mmHg 87%
    09:00 +30°C° 0 mm 1 mps 751 mmHg 78%
    10:00 +32°C° 0 mm 1 mps 751 mmHg 68%
    11:00 +34°C° 0 mm 1 mps 751 mmHg 59%
    12:00 +34°C° 0.1 mm 1 mps 750 mmHg 58%
    13:00 +34°C° 0.1 mm 1 mps 749 mmHg 56%
    14:00 +34°C° 0.1 mm 1 mps 749 mmHg 55%
    15:00 +32°C° 0.5 mm 1 mps 749 mmHg 65%
    16:00 +30°C° 0.5 mm 1 mps 749 mmHg 74%
    17:00 +29°C° 0.5 mm 1 mps 749 mmHg 83%
    18:00 +28°C° 0.1 mm 1 mps 750 mmHg 86%
    19:00 +27°C° 0.1 mm 1 mps 751 mmHg 89%
    20:00 +26°C° 0.1 mm 1 mps 751 mmHg 92%
    21:00 +26°C° 0.1 mm 1 mps 751 mmHg 93%
    22:00 +25°C° 0.1 mm 1 mps 751 mmHg 94%
    23:00 +25°C° 0.1 mm 1 mps 751 mmHg 95%
    Show more